User: anonymous   Login
Location: Unspecified
(0.0000°N, 0.0000°E)
Time: 22:14:09
(UTC+00:00)
Language:

ETS 8 - Orbit

View from above orbital plane
View from above orbital plane
View from above satellite
View from above satellite

Ground track
Ground track

The orbit data is extracted from the following two-line orbital elements,

1 29656U 06059A   15027.62606414 -.00000258  00000-0  00000+0 0  6130
2 29656 003.9600 064.9484 0005403 248.4996 184.1977 01.00273029 29740
Epoch (UTC): 27 January 2015 15:01:31
Eccentricity: 0.0005403
inclination: 3.9600°
perigee height: 35763 km
apogee height: 35808 km
right ascension of ascending node: 64.9484°
argument of perigee: 248.4996°
revolutions per day: 1.00273029
mean anomaly at epoch: 184.1977°
orbit number at epoch: 2974

The dashed part of the orbit path shows where the satellite is in the earth's shadow,  

DLR